Location: Bauerbach
(50.4985°N, 10.3912°E)
Time: 02:31:09
(UTC+00:00)

Daily predictions for brighter satellites

Satellite Brightness Start Highest point End
(mag) Time Altitude Azimuth Time Altitude Azimuth Time Altitude Azimuth
ATLAS 2AS CENTAUR R/B 4.0 03:19:12 30° NNE 03:19:14 30° NNE 03:25:07 10° ENE
Cosmos 1844 Rocket 4.4 03:23:00 26° NNE 03:23:00 26° NNE 03:25:21 10° NNE
CZ-4C R/B 4.0 03:35:32 23° NNE 03:35:32 23° NNE 03:39:10 10° NE
Cosmos 909 Rocket 4.3 03:38:03 65° SE 03:38:03 65° SE 03:44:02 10° SE
Cosmos 2263 Rocket 4.4 03:44:56 14° N 03:44:56 14° N 03:46:02 10° NNE
Cosmos 2082 Rocket 4.3 03:41:39 16° N 03:43:38 19° NE 03:47:40 10° E
Lacrosse 5 rocket 4.1 03:47:44 14° NE 03:47:44 14° NE 03:48:17 10° ENE
Cosmos 1745 Rocket 4.1 03:49:18 65° NE 03:49:18 65° NE 03:54:36 10° NNE
GEOS 3 Rocket 4.2 03:43:51 10° ESE 03:48:25 55° ENE 03:48:25 55° ENE
Cosmos 1833 Rocket 2.9 03:59:25 64° NE 03:59:36 64° ENE 04:05:11 10° SE
FengYun 1-2 T 4.4 03:58:51 10° NNE 04:04:27 68° ESE 04:06:53 34° S
COSMO-SKYMED 1 3.9 04:00:41 10° SE 04:04:14 36° ENE 04:04:14 36° ENE
Alouette 2 Rocket 4.4 04:16:19 60° SSW 04:17:29 81° WNW 04:25:52 10° NNE
Cosmos 1992 Rocket 4.3 04:16:45 48° N 04:17:58 61° ENE 04:23:06 10° SE
Cosmos 2344 4.4 04:20:19 30° NNW 04:21:49 32° N 04:28:53 10° ENE
Cosmos 2181 Rocket 4.4 04:16:26 10° N 04:22:46 64° ENE 04:29:06 10° SSE
Cosmos 1943 Rocket 4.5 04:19:57 10° SSE 04:24:08 23° ESE 04:28:18 10° NE
Sich 1 4.4 04:21:12 10° SSE 04:25:05 37° E 04:28:59 10° NNE
Meteor 1-23 Rocket 4.0 04:25:56 48° NNW 04:27:35 85° W 04:33:09 10° S
CZ-4 R/B 4.5 04:23:58 10° NNE 04:28:39 55° ESE 04:33:23 10° S
USA 307 3.8 04:30:52 38° NE 04:30:52 38° NE 04:33:44 10° ENE
Meteor 1-21 4.1 04:34:04 33° NNW 04:36:41 79° W 04:42:20 10° S
Cosmos 381 Rocket 4.4 04:34:47 13° SSW 04:40:41 84° WNW 04:47:09 10° NNE
ATLAS CENTAUR R/B 2.7 04:44:41 22° NE 04:44:41 22° NE 04:47:01 10° E
Cosmos 614 Rocket 3.8 04:47:35 58° W 04:48:08 63° WNW 04:53:10 10° NNE
Cosmos 1484 Rocket 4.4 04:46:26 10° NNE 04:49:28 30° E 04:52:30 10° SSE
Cosmos 2084 4.0 04:50:03 26° SSW 04:52:11 55° SE 04:56:16 10° NE
Okean 2 3.1 04:53:39 50° N 04:54:34 84° ENE 04:58:25 10° S
IRS-1D 3.5 04:51:15 10° NNE 04:56:34 76° WNW 05:01:52 10° SSW
Cosmos 2074 Rocket 4.3 04:54:55 10° S 05:01:08 69° E 05:07:25 10° NNE
Cosmos 1844 Rocket 3.8 05:04:39 25° NNW 05:04:39 25° NNW 05:08:52 10° NNE
Cosmos 1515 Rocket 3.7 05:05:58 48° W 05:06:15 48° W 05:10:29 10° SSW
ATLAS 2AS CENTAUR R/B 2.9 05:06:38 21° NW 05:11:21 65° NE 05:18:04 10° ESE
ARIANE 6 FM1 Upper Stage 3.1 05:12:43 38° WSW 05:12:52 39° SW 05:16:34 10° SSE
Nadezhda 3 Rocket 4.1 05:07:03 10° N 05:13:19 79° E 05:19:37 10° SSE
Meteor 1-11 Rocket 4.3 05:13:41 30° W 05:15:06 34° WNW 05:20:19 10° N
Cosmos 1743 Rocket 4.3 05:12:18 10° S 05:16:37 54° E 05:20:57 10° NNE
Meteor 2-13 Rocket 4.4 05:10:39 10° NNW 05:16:43 64° W 05:22:44 10° S
COSMOS 2406 4.5 05:13:40 10° NNW 05:19:00 38° NE 05:24:19 10° ESE
Lacrosse 5 rocket 2.0 05:21:15 30° NNW 05:21:50 32° N 05:25:17 10° NE
CZ-4C R/B 3.9 05:20:28 17° NNW 05:23:57 27° NNE 05:30:02 10° ENE
BREEZE M DEB (TANK) 3.0 05:23:21 31° WSW 05:24:34 46° SSW 05:31:17 10° SE
GEOS 3 Rocket 4.3 05:22:21 10° S 05:27:09 37° WSW 05:29:27 25° WNW
Cosmos 2263 Rocket 4.3 05:26:57 10° NNW 05:27:38 10° NNW 05:28:17 10° N
Cosmos 2082 Rocket 2.4 05:23:28 12° NNW 05:28:46 70° ENE 05:34:26 10° SE
Okean 3 Rocket 3.8 05:25:53 10° SSW 05:30:04 44° WNW 05:34:19 10° N
BREEZE-M DEB (TANK) 4.4 05:28:26 23° WSW 05:30:36 39° SSW 05:41:01 10° SE
Cosmos 2278 Rocket 2.6 05:28:33 10° SSW 05:34:08 66° ESE 05:39:45 10° NNE
SMAP 3.7 05:30:42 10° NNE 05:35:20 58° E 05:39:55 10° S
Cosmos 2154 Rocket 4.0 05:29:16 10° SSW 05:35:37 81° W 05:41:57 10° N
Helios 1A Rocket 3.0 05:35:33 10° SSW 05:38:38 35° W 05:39:35 29° WNW
COSMO-SKYMED 1 3.4 05:36:24 10° SSW 05:39:50 25° W 05:40:33 24° WNW
Cosmos 1805 Rocket 3.5 05:36:31 10° SSW 05:40:53 59° WNW 05:45:16 10° N
Okean 3 3.6 05:38:12 14° NNW 05:41:26 45° W 05:45:14 10° SSW
USA 32 4.0 05:37:42 10° S 05:42:57 88° E 05:48:13 10° N
Cosmos 1833 Rocket 3.7 05:41:08 21° WNW 05:43:04 25° WSW 05:47:33 10° SSW
Lacrosse 4 Rocket 4.1 05:40:37 10° SSE 05:43:42 22° ESE 05:46:46 10° ENE
Gblst 52 Del rocket 4.1 05:40:14 21° WNW 05:43:56 78° SSW 05:49:34 10° ESE
Cosmos 1500 Rocket 3.7 05:45:51 10° SSW 05:50:03 49° WNW 05:54:19 10° N
Cosmos 1758 3.0 05:48:27 10° SSW 05:52:10 69° WNW 05:55:53 10° N
TIMED 4.4 05:48:31 10° SW 05:52:44 63° WNW 05:56:59 10° NNE
Cosmos 1269 Rocket 4.1 05:48:41 10° SSW 05:53:58 81° ESE 05:59:18 10° NNE
Cosmos 1408 Rocket 4.0 05:52:28 10° SW 05:56:31 38° WNW 06:00:34 10° N
Timation 2 Rocket 4.1 05:51:14 10° SSW 05:57:52 88° ESE 06:04:16 10° NNE
USA 307 2.8 05:55:37 19° WNW 05:58:24 61° NNE 06:02:12 10° E
NOSS 8 (F) 4.1 05:57:44 17° NW 05:59:51 79° NE 06:03:09 10° SE
SeaSat 1 2.4 05:55:59 10° NNE 06:00:55 84° WNW 06:05:48 10° SW
Sich 1 4.0 05:58:55 10° SW 06:02:22 24° WNW 06:05:50 10° NNW
BREEZE-M DEB (TANK) 4.4 05:59:09 10° WSW 06:06:10 52° SSE 06:11:29 10° E
Cosmos 2084 Rocket 4.0 06:02:53 11° NW 06:06:47 51° NE 06:10:54 10° ESE
Cosmos 1943 Rocket 2.1 06:01:50 10° SW 06:07:19 69° WNW 06:12:50 10° NNE
IGS 5A 4.0 06:05:57 10° N 06:09:30 32° WNW 06:13:02 10° SW
Okean 1-7 2.8 06:07:17 10° NNW 06:11:25 74° W 06:15:33 10° S
SJ 16-02 3.9 06:08:41 10° SSE 06:12:10 25° E 06:15:39 10° NE
BREEZE-M DEB (TANK) 3.0 06:12:52 13° W 06:14:44 44° SSW 06:17:18 10° ESE
Cosmos 44 3.7 06:10:05 11° NW 06:15:13 58° WSW 06:20:30 10° SSE
Cosmos 921 Rocket 3.4 06:12:36 10° SW 06:16:39 38° WNW 06:20:40 10° N
Cosmos 2184 Rocket 4.4 06:13:14 10° SW 06:18:58 38° WNW 06:24:43 10° N
AQUARIUS 4.2 06:14:32 10° NNE 06:18:59 88° E 06:23:24 10° SSW
ATLAS CENTAUR R/B 1.1 06:16:30 13° NW 06:19:01 40° SW 06:21:52 10° SSE
ARIANE 5 R/B 2.6 06:14:06 10° NNE 06:19:17 87° ESE 06:24:22 10° SSW
Cosmos 1470 Rocket 4.2 06:15:26 10° S 06:19:40 60° E 06:23:55 10° NNE
Cosmos 1484 Rocket 3.6 06:19:32 10° NNW 06:22:10 21° WNW 06:24:49 10° WSW
Cosmos 1763 Rocket 3.4 06:18:03 10° NNW 06:23:05 70° WSW 06:28:06 10° SSE
Meteor 2-10 Rocket 4.1 06:18:57 10° SW 06:23:34 34° WNW 06:28:21 10° N
IRS-1C 4.2 06:18:37 10° NNE 06:23:59 89° ESE 06:29:18 10° SSW
CORIOLIS 4.2 06:18:59 10° N 06:24:21 61° WNW 06:29:41 10° SSW
Meteor 2-19 Rocket 4.5 06:18:23 10° NNW 06:24:22 63° W 06:30:19 10° S
Cosmos 1140 Rocket 3.5 06:20:35 10° SW 06:25:38 61° WNW 06:30:44 10° NNE
Meteor 2-5 Rocket 3.9 06:20:33 10° NNW 06:26:24 88° ENE 06:32:20 10° S
Cosmos 1862 Rocket 3.9 06:23:25 10° NNW 06:27:35 44° W 06:31:40 10° SSW
Cosmos 2084 4.2 06:27:16 10° W 06:31:02 32° NNW 06:34:47 10° NNE
CBERS-1 4.5 06:28:16 10° N 06:32:58 38° WNW 06:37:38 10° SW
SL-8 Rocket 4.0 06:27:02 10° S 06:33:21 82° W 06:39:41 10° N
GRACE-FO 1 4.4 06:33:17 10° S 06:36:42 73° W 06:40:10 10° N
GRACE-FO 2 4.4 06:33:44 10° S 06:37:09 72° W 06:40:36 10° N
Resurs 01 Rocket 3.9 06:33:28 10° NNE 06:37:19 29° E 06:41:08 10° SSE
Cosmos 2344 4.4 06:31:12 10° NW 06:38:21 46° NNE 06:47:17 10° E
MOS 1 Rocket 3.6 06:35:57 10° N 06:40:22 43° WNW 06:44:33 10° SW
Cosmos 2369 Rocket 4.2 06:35:40 10° S 06:40:43 34° ESE 06:45:50 10° NE
